Location: Bay Shore Mobile Home Park
(38.5762°N, 75.0841°W)
Time: 19:30:23
(UTC+00:00)

SAR-Lupe-4 - Pass Details

Date: 15 November 2025
Orbit: 476 x 483 km, 98.1° (Epoch: 03 October)

Event Time Altitude Azimuth Distance (km) Brightness Sun altitude
Rises 22:13:01 0° 155° (SSE) 2,531 7.1 -5.6°
Reaches altitude 10° 22:15:07 10° 149° (SSE) 1,656 6.2 -6.0°
Maximum altitude 22:18:33 49° 74° (ENE) 628 3.7 -6.6°
Drops below altitude 10° 22:22:01 10° 359° (N) 1,667 6.1 -7.2°
Sets 22:24:08 0° 354° (N) 2,550 7.1 -7.6°
